User: anonymous   Login
Location: Unspecified
(0.0000°N, 0.0000°E)
Time: 09:48:22
(UTC+02:00)
Language:

Cosmos 1315 Rocket - Orbit

View from above orbital plane
View from above orbital plane
View from above satellite
View from above satellite

Ground track
Ground track

The orbit data is extracted from the following two-line orbital elements,

1 12904U 81103B   15212.53936841  .00000759  00000-0  52380-4 0  9992
2 12904 081.1789 339.2927 0029413 161.2545 198.9768 15.04291272389551
Epoch (UTC): 31 July 2015 12:56:41
Eccentricity: 0.0029413
inclination: 81.1789°
perigee height: 533 km
apogee height: 574 km
right ascension of ascending node: 339.2927°
argument of perigee: 161.2545°
revolutions per day: 15.04291272
mean anomaly at epoch: 198.9768°
orbit number at epoch: 38955

The dashed part of the orbit path shows where the satellite is in the earth's shadow,  

DLR